Location: Unspecified
(42.3650°N, 71.1030°W)
Time: 12:21:50
(UTC+00:00)

Explorer 11/Cluster Stage 4 - Pass Details

Date: 23 June 2024
Orbit: 465 x 1215 km, 28.8° (Epoch: 19 July)

Event Time Altitude Azimuth Distance (km) Brightness Sun altitude
Rises 23:14:59 0° 211° (SSW) 3,984 10.3 10.6°
Reaches altitude 10° 23:19:00 10° 191° (S) 3,104 9.6 10.0°
Maximum altitude 23:23:28 16° 156° (SSE) 2,701 9.0 9.2°
Drops below altitude 10° 23:27:59 10° 122° (ESE) 3,152 9.1 8.4°
Sets 23:32:06 0° 103° (ESE) 4,076 9.6 7.7°
